Location: Sittingbourne
(51.3333°N, 0.7500°E)
Time: 06:40:35
(UTC+00:00)

Daily predictions for brighter satellites

Satellite Brightness Start Highest point End
(mag) Time Altitude Azimuth Time Altitude Azimuth Time Altitude Azimuth
IRS-1C Rocket 4.4 20:52:21 10° S 20:57:35 71° WSW 21:02:52 10° NNW
USA 234 3.6 20:51:40 10° ENE 20:57:50 42° SE 21:03:58 10° SSW
Timation 1 Rocket 4.4 20:54:10 10° SSW 21:00:02 63° ESE 21:05:55 10° NE
Cosmos 1356 Rocket 3.9 20:57:48 10° SSE 21:01:47 43° E 21:05:47 10° NNE
Landsat 4 3.6 20:58:47 10° SSE 21:02:11 62° ENE 21:05:35 10° N
Cosmos 1733 Rocket 3.3 20:58:56 10° N 21:03:19 58° ENE 21:07:41 10° SSE
Cosmos 1953 3.8 21:00:49 10° NNE 21:03:53 22° ENE 21:06:56 10° ESE
Cosmos 676 Rocket 4.5 20:58:35 10° SSW 21:03:54 69° WNW 21:09:13 10° NNE
BlueWalker 3 3.9 21:05:23 10° SE 21:06:18 11° SE 21:07:13 10° ESE
Terra 1.9 21:03:37 10° SSE 21:08:20 83° WSW 21:13:05 10° NNW
Cosmos 1315 Rocket 4.3 21:06:41 10° SE 21:09:40 21° E 21:12:41 10° NE
Cosmos 2360 Rocket 2.3 21:04:15 10° NNW 21:09:58 85° WSW 21:15:38 10° SSE
ARIANE 5 R/B 4.5 21:09:02 10° ESE 21:12:05 19° ENE 21:15:09 10° NNE
In-Cosmos 22 4.4 21:07:30 10° SSW 21:13:06 75° WNW 21:18:36 10° N
ERS-1 Rocket 3.4 21:10:24 10° S 21:15:23 64° WSW 21:20:24 10° NNW
Cosmos 841 Rocket 4.4 21:11:43 10° NW 21:16:45 46° WSW 21:21:45 10° S
Cosmos 1455 3.4 21:14:52 10° NNE 21:17:50 25° ENE 21:20:47 10° SE
S3M 4.5 21:12:51 10° NNW 21:19:09 64° W 21:25:21 10° S
SL-27 R/B 2.0 21:17:27 10° S 21:20:09 52° ESE 21:22:53 10° NNE
SL-16 R/B 3.3 21:17:54 10° NW 21:23:05 38° WSW 21:28:14 10° S
OPS 8737 4.0 21:21:07 10° NW 21:24:04 89° S 21:26:55 11° SE
BREEZE-M DEB (TANK) 3.8 21:21:42 10° SW 21:25:45 62° SSE 21:40:57 10° ENE
USA 245 4.4 21:25:03 10° S 21:28:39 45° W 21:33:10 10° NNW
Cosmos 2082 Rocket 4.4 21:24:26 10° WSW 21:29:27 31° NW 21:34:29 10° NNE
Cosmos 2333 Rocket 2.5 21:23:46 10° NW 21:29:30 68° WSW 21:35:12 10° SSE
Cosmos 807 4.2 21:26:35 10° S 21:29:44 62° E 21:32:37 10° NNE
Aureole 3 3.9 21:26:05 10° S 21:30:06 55° E 21:35:09 10° NNE
Cosmos 2266 Rocket 4.4 21:23:59 10° SSW 21:30:18 69° WNW 21:36:44 10° N
Meteor 1-23 Rocket 4.4 21:25:46 10° SSW 21:31:28 79° WNW 21:37:16 10° N
Spot 2 Rocket 3.9 21:26:34 10° S 21:31:34 61° WSW 21:36:38 10° NNW
Cosmos 1346 Rocket 3.0 21:28:05 10° NNW 21:31:56 65° W 21:35:44 10° S
SL-14 R/B 3.3 21:28:16 10° SSW 21:32:03 81° W 21:35:53 10° N
Cosmos 2228 Rocket 3.3 21:32:31 10° SSW 21:37:04 81° W 21:41:41 10° N
Cosmos 1655 Rocket 4.2 21:34:41 10° SSW 21:41:06 80° W 21:47:32 10° N
ATLAS 2AS CENTAUR R/B 3.0 21:35:15 10° NW 21:41:55 56° SW 21:47:58 12° SSE
COSMOS 2455 4.3 21:38:30 11° SE 21:41:58 18° ESE 21:45:51 10° ENE
Landsat 5 3.5 21:38:57 10° NNE 21:42:56 58° ESE 21:47:02 10° S
Cosmos 1833 4.2 21:38:55 10° SSW 21:44:30 69° ESE 21:50:06 10° NE
Cosmos 2237 Rocket 3.7 21:40:55 10° NNW 21:45:52 30° NE 21:50:47 10° ESE
Meteor 1-4 Rocket 2.1 21:44:36 12° S 21:47:18 62° E 21:50:17 10° NNE
Cosmos 1242 Rocket 3.4 21:47:48 16° SE 21:49:07 22° E 21:51:20 10° NE
USA 281 3.6 21:43:40 10° SE 21:50:04 58° NE 21:56:30 10° NNW
Cosmos 2322 3.9 21:45:38 10° NNW 21:51:20 69° ENE 21:56:21 13° SE
Meteor 1-16 Rocket 4.4 21:45:42 10° NNW 21:51:39 83° W 21:57:16 12° S
RESURS DK-1 4.5 21:49:41 10° WNW 21:52:33 19° WSW 21:55:23 10° SSW
Okean 3 3.4 21:48:46 10° S 21:52:55 90° W 21:57:08 10° N
Kosmos-1783 4.3 21:50:17 10° NW 21:53:44 79° SW 22:00:04 13° SE
Cosmos 839 Rocket 4.3 21:48:16 10° NW 21:55:14 66° WSW 22:00:35 14° SSE
Spot 1 4.2 21:51:05 10° NNE 21:55:39 81° ESE 22:00:27 10° SSW
Ariane Rocket 4.0 21:51:46 10° SSW 21:56:34 41° W 22:01:23 10° NNW
Cosmos 1300 4.3 21:54:28 10° NNW 21:57:33 27° W 22:00:36 10° SSW
ALOS 2 4.5 21:58:26 10° ESE 22:01:41 21° ENE 22:04:58 10° NNE
H-2A R/B 3.9 21:58:24 11° ESE 22:01:51 29° ENE 22:05:33 10° N
MetOp-A 4.3 21:58:04 12° S 22:02:53 71° WSW 22:08:08 10° NNW
Cosmos 1703 Rocket 4.0 21:59:28 15° SSE 22:03:01 49° E 22:07:19 10° NNE
Cosmos 1862 Rocket 4.1 21:59:29 10° SSW 22:03:51 60° WNW 22:08:15 10° N
Cosmos 2322 Rocket 3.7 21:59:44 10° NW 22:04:33 29° WSW 22:09:22 10° SSW
SL-4 R/B 1.9 22:03:53 10° W 22:07:47 78° SSW 22:11:57 10° ESE
Cosmos 2297 Rocket 3.7 22:11:53 14° SE 22:14:41 19° E 22:18:34 10° NE
SJ 16-02 1.6 22:12:16 10° SSW 22:16:34 68° WNW 22:20:55 10° NNE
SeaSat 1 4.3 22:15:28 10° SSW 22:19:06 20° WSW 22:22:43 10° WNW
SL-08 R/B 4.4 22:13:35 12° S 22:19:21 81° E 22:25:29 10° NNE
Cosmos 158 Rocket 4.1 22:17:05 10° NNW 22:22:26 78° ENE 22:26:23 18° SSE
Cosmos 968 Rocket 4.2 22:17:47 10° SW 22:22:51 55° WNW 22:27:59 10° NNE
BREEZE-M DEB (TANK) 3.2 22:20:57 10° WSW 22:23:44 70° S 22:31:06 10° E
Cosmos 1932 4.5 22:19:39 10° SW 22:26:00 88° SE 22:32:19 10° NE
Cosmos 1570 Rocket 4.1 22:20:58 10° NNW 22:26:20 75° WSW 22:30:19 18° SSE
BREEZE-M DEB (TANK) 4.0 22:25:20 10° WSW 22:27:08 18° SSW 22:27:27 18° S
MINOTAUR 4 R/B 4.3 22:25:08 10° NNE 22:27:52 35° E 22:28:58 25° SE
Cosmos 2219 Rocket 2.9 22:22:39 10° NW 22:28:01 44° WSW 22:32:21 15° S
Cosmos 1408 3.1 22:27:18 23° SE 22:28:26 30° E 22:31:08 10° NNE
ATLAS CENTAUR R/B 2.7 22:25:20 10° WSW 22:28:38 36° NW 22:32:04 10° NNE
EXPRESS MD2 1.8 22:27:47 10° W 22:30:04 57° S 22:30:57 28° ESE
CZ-4C R/B 2.9 22:28:53 19° SSE 22:31:04 27° ESE 22:35:38 10° ENE
COSMOS 2428 2.8 22:28:38 10° NNW 22:34:20 76° WSW 22:38:32 19° SSE
CZ-2C R/B 3.6 22:33:44 10° NNE 22:38:10 77° ESE 22:41:28 18° S
BREEZE-M DEB (TANK) 3.7 22:22:44 10° W 22:38:26 78° S 22:42:28 10° E
CENTAUR R/B 4.1 22:37:02 11° SE 22:39:12 13° ESE 22:42:06 10° ENE
Cosmos 1953 3.4 22:36:18 10° NNW 22:39:50 36° W 22:42:38 14° SSW
USA 234 3.4 22:34:40 10° ENE 22:41:14 84° NNW 22:47:47 10° WSW
Okean 2 4.2 22:38:16 10° SSW 22:42:07 46° WNW 22:46:01 10° N
Okean 1-7 3.9 22:38:35 10° SSW 22:42:45 47° WNW 22:46:57 10° N
BlueWalker 3 2.1 22:40:07 10° SW 22:43:43 46° SSE 22:47:19 10° ENE
Cosmos 405 Rocket 4.0 22:40:22 10° N 22:43:44 30° ENE 22:46:03 17° ESE
Cosmos 1315 Rocket 3.9 22:41:45 10° SW 22:45:32 42° WNW 22:49:23 10° N
Terra 4.3 22:44:47 10° WSW 22:46:42 12° W 22:48:37 10° WNW
ARIANE 5 R/B 2.8 22:45:12 20° S 22:48:04 63° WSW 22:52:24 10° NNW
Cosmos 773 Rocket 4.1 22:43:56 10° NNW 22:49:06 72° ENE 22:52:47 19° SE
Cosmos 1455 3.6 22:49:14 10° NNW 22:52:13 26° W 22:54:36 14° SW
Cosmos 2360 Rocket 4.3 22:49:43 10° WNW 22:53:06 16° W 22:56:27 10° SW
Cosmos 371 Rocket 3.6 22:53:41 22° S 22:56:34 49° ESE 23:01:14 10° NNE
PSLV R/B 3.8 22:54:41 10° NNE 22:58:43 89° WSW 23:01:18 21° SSW
Cosmos 1782 Rocket 4.0 22:55:31 10° NNW 22:59:45 54° W 23:02:30 20° SSW
GP-B 3.7 22:55:57 10° N 23:00:14 51° W 23:03:32 16° SSW
Cosmos 2208 Rocket 4.4 22:57:14 10° NNW 23:02:16 51° WSW 23:05:33 21° S
Cosmos 1745 Rocket 4.1 22:59:46 15° SSW 23:05:05 78° W 23:11:30 10° N
Cosmos 1892 4.3 23:05:53 17° ESE 23:07:11 20° E 23:09:52 10° NE
GENESIS II 4.4 23:03:48 10° SW 23:07:25 63° NW 23:11:03 10° NE
H-2A R/B 3.7 23:05:58 10° NE 23:09:08 20° E 23:10:59 16° SE
Nadezhda 1 Rocket 4.5 23:04:13 10° NNW 23:10:19 53° W 23:15:01 17° SSW
Cosmos 1503 Rocket 4.4 23:07:09 22° S 23:10:22 51° ESE 23:15:29 10° NNE
Cosmos 2333 Rocket 4.5 23:10:20 10° WNW 23:12:42 13° W 23:15:05 10° WSW
NOSS 8 (H) 4.3 23:11:36 22° SSW 23:13:45 63° SE 23:16:44 10° NE
Cosmos 1703 3.1 23:12:38 28° S 23:14:26 73° E 23:18:07 10° NNE
Cosmos 1300 Rocket 4.2 23:11:04 10° NNW 23:15:11 45° W 23:17:47 20° SSW
Cosmos 1242 Rocket 4.4 23:19:08 10° WSW 23:21:05 18° WNW 23:23:04 10° NNW
Cosmos 2181 Rocket 4.1 23:16:24 10° N 23:22:37 73° ENE 23:26:52 21° SSE
SL-16 R/B 3.2 23:18:54 10° NNW 23:24:23 44° NE 23:29:49 10° ESE
NOSS 8 (A) 4.5 23:21:33 10° NW 23:24:27 64° NE 23:26:35 20° ESE
NOSS 8 (F) 4.5 23:22:47 10° SW 23:26:30 72° NW 23:29:32 10° NE
COSMOS 2455 2.8 23:21:34 13° SSW 23:27:00 82° SE 23:33:05 10° NE
Cosmos 1825 3.1 23:26:52 23° SE 23:28:05 30° E 23:31:08 10° NNE
Cosmos 2151 Rocket 3.7 23:24:07 10° N 23:28:32 69° ENE 23:31:01 25° SSE
Spot 4 4.3 23:26:57 23° SSW 23:29:48 53° W 23:34:32 10° NNW
BREEZE-M DEB (TANK) 3.5 23:29:09 29° SSW 23:30:11 42° SSE 23:35:09 10° E
Cosmos 2237 Rocket 2.3 23:24:47 10° NNW 23:30:26 69° WSW 23:34:01 23° SSE
Cosmos 2098 Rocket 4.1 23:27:19 10° NNW 23:33:57 80° W 23:38:17 22° S
Cosmos 2074 Rocket 4.5 23:30:40 20° SSE 23:34:43 49° E 23:40:40 10° NNE
Okean 2 Rocket 3.2 23:30:20 10° N 23:34:49 73° ENE 23:37:23 25° SSE
USA 281 4.0 23:30:32 18° SSW 23:34:49 38° WSW 23:40:54 10° NW
H-2A R/B 3.5 23:34:22 21° SSW 23:36:41 36° W 23:40:39 10° NNW
Cosmos 1486 Rocket 4.2 23:32:32 15° SW 23:36:47 71° WNW 23:42:01 10° NNE
Cosmos 1674 Rocket 3.9 23:35:17 26° SSE 23:37:31 53° E 23:41:45 10° NNE
Cosmos 1378 Rocket 3.7 23:35:17 26° S 23:37:34 63° E 23:41:56 10° NNE
ALOS 2 2.9 23:35:18 25° S 23:37:40 58° W 23:42:02 10° NNW
Cosmos 2227 Rocket 2.8 23:35:09 23° SSE 23:38:15 42° ESE 23:43:34 10° NE
Cosmos 304 Rocket 3.8 23:38:29 20° SSW 23:41:45 83° WNW 23:46:33 10° NNE
Cosmos 1980 4.0 23:38:17 10° NW 23:43:47 53° WSW 23:47:07 23° S
SL-4 R/B 2.9 23:42:42 10° W 23:46:16 30° SSW 23:47:04 28° SSW
Meteor 1-24 Rocket 3.8 23:42:32 20° SSW 23:46:36 77° WNW 23:52:13 10° N
SOZ 4.4 23:44:57 10° W 23:47:29 90° N 23:50:31 10° ESE
Cosmos 332 Rocket 4.0 23:48:04 25° S 23:50:44 58° ESE 23:55:33 10° NNE
Cosmos 1354 Rocket 4.0 23:49:34 22° SSW 23:53:04 82° ESE 23:58:23 10° NNE
SJ 16-02 4.2 23:53:53 10° WNW 23:55:48 13° NW 23:57:44 10° NNW
